Retour au catalogue

STARLINK-36826

ActifCommunicationsSSO
NORAD 67885·PAYLOAD·🇺🇸 United States

Lancé Feb 21, 2026 depuis Vandenberg Space Force Base

Loading…

Prochains Passages (prochaines 24 heures)

TLE

FraisSource: CelesTrak SupGP

Époque: Sep 14, 2026, 21:32 UTC

1 67885C 26035G   26257.89770833 -.00065206  00000+0 -20245-2 0  2579
2 67885  97.2847 189.7856 0001722  91.9775 202.2989 15.33466925    14

Suivez STARLINK-36826 en temps réel avec AllMySat

Download on the App Store